Location: Gu�tanj
(46.5431°N, 14.9692°E)
Time: 13:23:55
(UTC+00:00)

Envisat - Visible Passes

Search period start: 24 September 2021 00:00
Search period end: 04 October 2021 00:00
Orbit: 764 x 766 km, 98.2° (Epoch: 23 September)

Date Brightness Start Highest point End Pass type
(mag) Time Alt. Az. Time Alt. Az. Time Alt. Az.
24 Sep 5.9 02:57:41 10° NE 03:00:53 16° E 03:04:03 10° SE visible
25 Sep 3.8 03:58:32 10° NNE 04:03:33 57° E 04:08:32 10° S visible
26 Sep 5.2 03:22:10 10° NE 03:26:30 27° E 03:30:47 10° SSE visible
27 Sep 6.1 02:46:54 10° ENE 02:49:13 13° E 02:51:31 10° ESE visible
28 Sep 4.2 03:47:06 10° NNE 03:52:00 45° E 03:56:51 10° S visible
29 Sep 5.5 03:10:57 10° NE 03:14:53 22° E 03:18:46 10° SE visible
30 Sep 3.2 04:12:17 10° NNE 04:17:24 77° ESE 04:22:29 10° S visible
01 Oct 4.7 03:35:43 10° NNE 03:40:25 36° E 03:45:05 10° SSE visible
02 Oct 5.8 02:59:50 10° NE 03:03:14 18° E 03:06:37 10° SE visible
03 Oct 3.6 04:00:49 10° NNE 04:05:52 61° E 04:10:54 10° S visible
